www.pogodaiklimat.ru

Погода и климат >> Архив погоды >> Перу >> Tarapoto


ПОГОДА в Tarapoto

  • Прогноз погоды в Tarapoto
  • Монитор погоды в Tarapoto
  • Климат города

АРХИВ ПОГОДЫ в Tarapoto

Время (UTC), дата Ветер
(напр.,м/с)
 
Видим.   Явления Облачность Т
(С)
Тd
(С)
f
(%)
Тe
(С)
Тes
(С)
Комфортность P
(гПа)
Po
(гПа)
Тmin
(С)
Tmax
(С)
R
(мм)
R24
(мм)
S
(см)
12 6.12 Ю 1 10 км 5/1 600 м
[Sc Ac trans]
+22.7 +22.2 97 +31 +32 очень
душно
1011.7 982.6 +21.4 7
15 6.12 Ю 2 10 км 4/4 600 м
[Cu hum]
+31.8 +22.2 57 +41 +50 опасность
перегрева
1011.4 983.1
18 6.12 С 6 10 км 4/4 600 м
[Cu med, cong]
+35.1 +20.6 43 +42 +47 опасность
перегрева
1007.4 979.5
00 7.12 СЗ 5 10 км 8/4 750 м
[Cu hum Ac trans]
+28.7 +21.4 65 +37 +37 очень
душно
1009.2 980.7 +35.6
12 7.12 штиль 0 9000 м морось 10/10 360 м
[St]
+22.9 +22.2 96 +31 +31 очень
душно
1016.1 985.9 +22.6
15 7.12 штиль 0 10 км {морось} 10/4 450 м
[Cu hum Ac trans]
+25.2 +21.5 80 +32 +37 очень
душно
1016.7 987.6
18 7.12 В 3 10 км {морось} 8/4 600 м
[Cu hum Ac trans]
+29.2 +21.8 64 +37 +44 очень
душно
1014.5 985.8
21 7.12 СЗ 4 10 км 4/4 600 м
[Cu hum]
+31.2 +22.2 59 +40 +43 очень
душно
1009.9 981.5
00 8.12 С 2 10 км 3/3 750 м
[Sc]
+26.2 +21.5 75 +33 +33 очень
душно
1010.8 982.0 +31.5
03 8.12 З 2 10 км 1/1 750 м
[Sc]
+23.8 +21.7 88 +30 +30 очень
душно
1014.8 985.7
12 8.12 штиль 0 10 км 10/4 600 м
[Sc Ac trans]
+23.6 +22.6 94 +31 +31 очень
душно
1015.2 986.1 +22.5
15 8.12 ЮВ 2 10 км 4/4 600 м
[Sc Ac trans]
+26.7 +22.5 78 +35 +45 очень
душно
1016.5 987.6
18 8.12 З 1 10 км 10/4 600 м
[Cu med, cong Ac trans]
+27.6 +22.4 73 +36 +42 очень
душно
1014.5 985.8 1
21 8.12 ЮЗ 3 8000 м 10/5 450 м
[Cu hum As op]
+25.1 +23.0 88 +33 +34 очень
душно
1012.2 983.2
00 9.12 штиль 0 10 км 8/4 600 м
[Sc Ac trans]
+23.7 +23.0 96 +31 +31 очень
душно
1012.4 983.3 +29.5
12 9.12 штиль 0 8000 м 6/3 300 м
[St Ac trans]
+22.5 +22.2 98 +30 +31 очень
душно
1013.7 984.5 +21.7 1
15 9.12 штиль 0 10 км 8/4 450 м
[Cu hum Ac trans]
+27.6 +22.6 74 +36 +44 очень
душно
1015.7 986.8
18 9.12 ЮВ 3 10 км 10/4 600 м
[Sc Ac trans]
+28.6 +22.2 68 +37 +41 очень
душно
1013.9 985.2
21 9.12 ЮВ 2 10 км 8/4 600 м
[Cu hum Ac trans]
+28.7 +21.1 64 +36 +39 очень
душно
1010.6 982.0
00 10.12 штиль 0 10 км 3/3 750 м
[Sc]
+24.8 +22.3 86 +32 +32 очень
душно
1011.2 982.3 +29.5
12 10.12 штиль 0 10 км 9/3 360 м
[Cu hum Ac trans]
+23.0 +22.4 96 +31 +32 очень
душно
1014.5 985.3 +22.0
15 10.12 штиль 0 10 км 8/4 600 м
[Cu hum Ac trans]
+27.5 +22.9 76 +37 +44 очень
душно
1015.4 986.5
18 10.12 Ю 3 10 км 8/4 600 м
[Cu hum Ac trans]
+31.9 +22.5 58 +42 +48 опасность
перегрева
1011.9 983.6
21 10.12 Ю 3 10 км 4/4 600 м
[Cu med, cong]
+31.8 +22.4 58 +41 +45 опасность
перегрева
1008.6 980.4
00 11.12 С 3 10 км 4/4 600 м
[Cu med, cong]
+28.4 +22.7 71 +38 +38 очень
душно
1009.7 981.1 +34.1
03 11.12 штиль 0 10 км 1/1 750 м
[Cu hum]
+25.3 +23.4 89 +34 +34 очень
душно
1013.7 984.7
12 11.12 штиль 0 8000 м 10/4 450 м
[Sc As trans]
+23.7 +23.2 97 +32 +32 очень
душно
1014.5 985.4 +23.0
15 11.12 В 2 3500 м слабый дождь 10/10 240 м
[St]
+23.1 +22.9 99 +32 +32 очень
душно
1016.6 987.3
18 11.12 СЗ 1 5000 м местами туман поземный {дождь} 10/10 300 м
[St]
+23.7 +23.2 97 +32 +32 очень
душно
1014.9 985.8 25
21 11.12 штиль 0 10 км {дождь} 10/4 600 м
[Sc Ac trans]
+26.4 +23.2 83 +36 +37 очень
душно
1012.5 983.5
00 12.12 СВ 2 10 км 8/4 600 м
[Sc Ac trans]
+24.6 +23.2 92 +33 +33 очень
душно
1012.2 983.2 +27.5
03 12.12 штиль 0 10 км 9/4 450 м
[Sc Ac trans]
+23.8 +23.0 95 +32 +32 очень
душно
1015.4 986.3
12 12.12 В 2 2000 м дымка 10/10 150 м
[St]
+22.8 +22.5 98 +31 +31 очень
душно
1015.2 986.0 +22.1 29
15 12.12 ЮВ 2 10 км 8/4 360 м
[Cu med, cong Ac trans]
+27.9 +23.4 77 +38 +44 очень
душно
1016.0 987.2
18 12.12 ЮВ 2 3000 м слабый дождь 10/10 300 м
[St]
+24.9 +24.1 95 +34 +34 очень
душно
1014.2 985.2 2
21 12.12 ЮВ 2 10 км {дождь} 10/4 450 м
[Cu hum Ac trans]
+25.4 +23.3 88 +34 +35 очень
душно
1011.3 982.4
00 13.12 штиль 0 10 км {дождь} 3/3 750 м
[Sc]
+24.6 +23.2 92 +33 +33 очень
душно
1011.4 982.5 +29.5 3

 

Местоположение метеостанции Tarapoto (Перу): широта -6.50 долгота -76.36 высота над уровнем моря 282 м.

В архиве по умолчанию представлена погода в Tarapoto за последнюю неделю. Архивные данные за месяц целиком и за предыдущие месяцы, начиная с января 2011 года, Вы можете получить, выбрав интересующий диапазон дат из раскрывающегося списка и нажав кнопку "Ввод!".


*Определитесь, кто Вы:
робот инопланетянин человек

Внимание! Время в таблицах - всемирное. Для получения местного времени необходимо прибавить поправку, которая в Tarapoto равна -5 ч.

Смотрите также архив погоды в соседних городах и на ближайших метеорологических станциях:

Погода в Yurimaguas (Перу) (74 км)
Погода в Juanjui (Перу) (84 км)
Погода в Chachapoyas (Перу) (168 км)
Погода в Cajamarca (Перу) (242 км)
Погода в Pucallpa (Перу) (288 км)
Погода в Tingo Maria (Перу) (312 км)
Погода в Anta (Перу) (345 км)
Погода в Trujillo (Перу) (350 км)
Погода в Huanuco (Перу) (375 км)
Погода в Chimbote (Перу) (376 км)

Пояснения к столбцам:

Ветер - указаны скорость ветра в м/с - средняя за 10 мин, порывы в срок и между сроками (в фигурных скобках) и направление, откуда дует ветер: С - северный, СВ - северо-восточный, В - восточный, ЮВ - юго-восточный, Ю - южный, ЮЗ - юго-западный, З - западный, СЗ - северо-западный.
Видимость - горизонтальная дальность видимости в метрах или километрах. При видимости от 1 до 10 км при отсутствии осадков обычно наблюдается дымка, при ухудшении видимости до 1 км и менее - туман. В сухую погоду видимость может ухудшаться дымом, пылью или мглою.
Явления - указаны атмосферные явления, наблюдавшиеся в срок или в последний час перед сроком; фигурными скобками обозначены явления, наблюдавшиеся между сроками (за 1-3 часа до срока); квадратными скобками обозначены град или гололедные отложения с указанием их диаметра в мм.
Облачность - указаны через наклонную черту общая и нижняя облачность в баллах и высота нижней границы облаков в метрах; квадратными скобками обозначены формы облаков: Ci - перистые, Cs - перисто-слоистые, Cc - перисто-кучевые, Ac - высококучевые, As - высокослоистые, Sc - слоисто-кучевые, Ns - слоисто-дождевые, Cu - кучевые, Cb - кучево-дождевые. Подробнее классификацию облаков см. в Атласе облаков (PDF).
T - Температура воздуха - температура, измеренная на высоте 2 м над землей.
Td - Температура точки росы - температура, при понижении до которой содержащийся в воздухе водяной пар достигнет насыщения.
f - Относительная влажность воздуха - влажноcть воздуха, измеренная на высоте 2 м над землей.
Te - Эффективная температура - температура, которую ощущает одетый по сезону человек в тени. Характеристика душности погоды. При расчете учитывается влияние влажности воздуха и скорости ветра на теплоощущения человека.
Tes - Эффективная температура на солнце - температура, которую ощущает человек, с поправкой на солнечный нагрев. Характеристика знойности погоды. Зависит от высоты солнца над горизонтом, облачности и скорости ветра. Ночью, в пасмурную погоду, а также при ветре 12 м/с и более поправка равна нулю.
P - Атмосферное давление - приведенное к уровню моря атмосферное давление.
Po - Атмосферное давление - измеренное на уровне метеостанции атмосферное давление.
Tmin - Минимальная температура - минимум температуры воздуха на высоте 2 м над землей.
Tmax - Максимальная температура - максимум температуры воздуха на высоте 2 м над землей.
R - Количество осадков - Количество выпавших осадков за период времени, мм. При наведении курсора мыши на число - период времени, за который выпало указанное количество осадков.
R24 - Количество осадков - Количество выпавших осадков за 24 часа, мм.
S - Снежный покров - Высота снежного покрова, см. При наведении курсора мыши на число - состояние снежного покрова и степень покрытия местности в баллах.